Wind_Speed
11 11 11 10 10 10 8 9 12 15 16 12 13 17 20 20 18 18 19 21 21 20 20 21 22 22 23 24 24 25 25 25 26 27 27 28 28 29 30 30 30 31 31 32
10 10 10 9 12 15 14 14 14 16 16 15 15 18 19 19 20 19 20 20 19 19 19 20 21 22 23 24 25 26 26 27 28 28 29 30 30 30 31 31 31 32 32 32
9 8 11 13 16 16 16 15 15 16 17 16 16 18 20 19 18 18 19 19 18 18 18 19 21 22 23 25 26 27 28 29 30 30 31 31 31 31 31 31 32 32 32 32
9 9 13 14 14 15 15 15 16 14 15 15 14 18 20 21 19 17 18 19 18 18 19 20 21 22 24 25 26 27 28 29 30 31 32 32 32 32 32 32 32 31 32 32
10 12 14 14 12 14 14 13 14 16 17 17 16 17 21 22 21 20 18 17 17 19 20 21 22 24 25 26 26 27 28 29 30 31 31 31 32 31 31 31 31 31 32 31
11 12 12 11 12 14 13 12 13 15 17 19 18 19 22 23 20 19 14 15 17 18 19 21 22 23 24 25 25 26 28 29 29 30 31 31 31 31 31 31 31 31 30 29
10 11 12 12 13 14 13 13 14 15 17 20 20 21 24 24 21 18 16 17 17 19 21 21 22 23 24 24 25 26 27 28 28 28 29 29 29 29 29 30 31 30 30 29
11 11 12 12 13 14 14 13 14 15 15 16 15 19 23 20 17 17 17 18 18 19 21 22 22 23 24 25 25 26 26 27 27 27 28 28 28 28 28 29 30 29 29 28
12 12 13 13 12 13 12 13 14 13 13 16 15 16 18 16 16 18 18 19 20 21 21 22 23 24 25 25 26 26 26 26 26 26 26 26 26 26 27 28 28 28 28 28
14 12 12 10 11 11 13 12 13 14 14 15 15 18 17 14 15 18 19 19 20 21 22 22 23 24 24 25 26 26 26 26 26 26 25 26 26 26 26 26 26 26 26 26
13 13 12 13 12 12 13 14 14 14 15 16 17 17 17 18 17 17 19 20 21 22 22 23 23 24 25 26 26 26 26 25 25 25 24 24 25 25 25 25 25 25 26 25
14 15 14 14 14 14 15 14 15 15 16 18 20 20 18 20 18 19 20 21 21 22 23 23 24 24 25 25 26 26 25 24 24 24 23 23 23 24 24 25 25 25 25 25
14 14 14 14 15 14 14 12 15 16 16 17 19 20 18 19 20 18 19 21 23 23 24 24 25 25 26 25 25 25 24 24 23 23 23 23 23 23 23 23 23 22 23 23
15 16 15 15 14 13 12 11 13 15 16 17 19 21 21 21 21 19 19 22 23 23 24 25 25 25 26 25 25 24 24 24 23 23 23 23 23 22 21 21 21 22 22 22
14 14 14 13 13 11 10 11 13 16 17 18 19 21 22 23 22 21 22 23 23 23 24 25 25 25 25 25 24 25 25 24 23 22 22 22 22 21 21 21 21 20 20 20
13 12 13 12 11 11 11 12 14 16 17 19 20 21 22 23 22 23 24 24 23 24 25 25 25 25 24 24 24 25 24 23 22 21 20 20 20 19 19 20 20 19 18 17
11 11 12 12 12 13 14 14 15 15 16 19 20 21 22 23 22 23 24 24 25 24 24 24 24 24 24 24 24 23 22 21 20 19 19 18 18 17 17 18 18 17 17 16
10 11 11 12 12 13 13 13 14 15 16 18 18 19 20 21 23 23 24 24 24 24 23 23 23 23 22 22 21 20 19 18 18 18 17 17 16 16 16 16 16 16 16 15
9 10 10 11 11 13 13 12 13 15 16 17 17 18 19 21 22 23 23 23 23 23 22 22 21 21 20 19 19 18 17 16 16 15 15 15 15 14 15 14 14 14 14 14
7 9 9 9 10 11 11 11 12 15 16 17 17 18 19 20 21 21 21 21 21 21 20 20 19 18 18 17 16 16 15 14 14 13 13 13 13 13 12 12 11 11 11 11
6 7 8 8 10 11 11 11 12 14 15 17 17 18 18 19 19 19 19 19 19 18 18 17 16 16 15 14 14 13 12 12 11 11 11 11 11 10 9 9 8 8 8 8
7 8 8 8 9 9 10 11 11 12 14 15 16 17 17 18 18 18 18 18 17 16 15 14 14 14 13 12 11 10 10 9 10 10 9 8 8 7 6 5 6 6 6 5
6 7 8 8 8 8 9 9 10 11 12 13 15 16 16 16 16 16 17 16 15 14 14 13 13 12 11 10 9 9 9 8 8 7 5 5 4 4 4 4 3 3 3 3
6 7 7 6 6 6 7 8 9 11 12 13 13 14 14 14 14 15 15 15 14 13 13 12 11 10 9 8 7 6 6 5 4 3 3 2 2 2 1 1 1 1 1 1
6 6 6 6 6 7 7 7 9 10 11 11 12 12 13 14 14 14 15 14 13 13 12 10 9 8 7 6 4 3 3 2 1 1 1 1 2 3 3 3 3 2 2 2
5 5 5 6 6 6 7 7 8 9 10 11 11 11 12 13 13 13 13 13 12 11 10 9 7 6 5 4 3 2 2 2 2 2 3 4 4 4 4 4 5 4 4 4
Wind_Direction
222 215 209 209 206 191 213 220 220 222 240 237 227 231 242 252 253 254 255 256 258 262 267 269 271 273 275 276 277 278 280 280 279 280 280 279 279 279 277 276 276 276 277 278
214 216 206 205 213 208 202 206 214 218 227 233 227 235 242 247 252 253 255 258 259 262 266 269 271 273 275 277 278 279 280 280 281 282 283 282 280 279 278 276 275 275 277 279
203 215 213 212 218 212 202 198 208 223 233 232 232 237 247 250 250 251 256 261 264 264 266 269 272 275 277 278 278 279 280 281 282 283 283 281 280 279 277 275 276 276 277 278
208 217 226 224 217 212 209 207 207 220 235 239 236 240 248 253 251 250 256 262 265 267 270 272 275 277 278 279 279 279 280 282 282 282 281 280 279 278 277 276 275 276 276 277
212 223 226 222 214 217 214 211 213 218 228 234 235 242 251 256 256 252 251 258 267 270 274 276 277 278 280 280 279 279 281 282 281 280 280 279 278 277 276 275 275 275 276 276
209 224 224 221 213 214 209 211 221 226 233 240 239 246 257 265 268 263 253 266 273 274 277 278 279 279 281 281 279 280 281 282 281 280 279 278 277 276 276 276 276 277 276 276
211 218 223 222 215 214 209 214 226 234 237 239 236 243 258 263 264 269 271 278 281 280 278 279 279 280 281 281 280 281 282 282 280 281 279 278 278 277 277 276 277 278 278 277
219 221 225 224 218 214 213 217 234 248 250 252 243 243 253 260 269 277 279 286 286 283 281 281 281 282 282 282 282 284 284 283 281 281 280 278 277 277 277 277 278 279 278 278
218 221 220 221 223 213 219 223 237 257 258 260 253 253 253 261 271 279 283 288 289 287 285 285 285 284 285 285 285 285 285 284 283 282 281 279 277 277 278 279 278 278 278 278
208 215 214 216 222 219 223 230 239 252 262 273 266 258 255 262 277 283 288 287 287 287 285 286 288 288 288 288 288 287 286 284 283 282 279 278 278 277 278 279 279 277 277 277
214 219 215 213 219 229 230 230 239 248 254 270 278 266 269 270 275 285 290 290 289 289 288 289 289 290 290 290 290 289 288 286 283 281 280 279 277 276 276 277 277 278 278 278
224 223 218 217 218 225 227 232 235 243 248 258 272 279 277 281 279 285 289 291 292 292 291 290 290 290 291 291 290 290 289 287 285 284 282 280 279 278 277 277 277 277 278 279
225 224 219 218 222 224 225 228 237 245 250 261 272 281 282 280 281 284 288 291 294 293 292 291 291 291 292 292 291 290 288 286 286 284 282 280 279 279 278 277 277 278 277 277
227 227 224 222 223 227 227 230 239 247 252 260 270 279 285 286 290 288 289 292 294 294 292 292 292 292 292 292 291 291 289 286 285 285 283 281 280 279 278 278 278 279 278 278
231 229 233 231 225 225 229 238 243 252 258 265 273 279 284 287 290 293 295 294 294 294 293 293 293 293 293 292 291 291 289 286 285 284 282 281 280 279 278 278 279 280 281 281
235 233 228 232 231 235 246 250 256 258 263 268 272 279 281 286 288 290 292 294 294 294 295 294 292 292 293 292 290 291 288 287 286 284 282 281 281 280 279 279 279 280 280 280
238 235 231 232 234 239 247 252 259 260 266 270 275 282 285 287 290 294 295 296 298 299 297 295 294 294 293 292 290 289 287 286 284 283 282 281 280 279 280 279 278 278 278 278
242 237 233 230 232 240 249 256 267 271 274 277 281 285 288 289 296 297 298 299 300 301 299 296 295 294 293 292 290 289 287 286 285 283 282 279 277 277 277 278 277 276 278 276
237 236 235 235 232 242 245 249 262 276 282 285 288 290 294 297 299 300 301 302 302 301 299 296 295 294 293 290 289 289 288 286 285 283 281 281 279 277 277 275 276 278 277 274
237 237 238 236 243 253 255 260 268 278 285 291 293 296 298 301 302 305 306 305 304 304 303 298 295 296 293 291 290 289 289 288 285 283 282 281 281 280 278 274 276 277 277 275
239 241 247 249 249 251 259 264 272 280 290 296 297 300 303 306 308 310 311 309 308 307 307 303 299 299 298 295 294 293 292 289 287 285 283 282 282 279 275 272 270 270 277 276
243 240 247 255 255 259 263 266 274 287 292 299 302 304 307 311 312 315 317 318 317 315 312 309 306 305 303 299 296 297 292 291 288 286 281 279 282 279 270 263 262 266 268 271
246 250 257 259 266 269 275 278 283 292 299 304 308 310 312 316 319 323 326 326 325 322 320 317 312 310 308 305 298 295 294 295 290 287 283 277 273 267 261 264 270 271 274 279
248 251 258 261 274 281 280 284 288 296 301 308 316 319 322 325 326 329 332 331 331 330 328 323 319 316 312 312 306 300 298 297 290 282 274 257 246 237 233 265 280 295 325 340
253 257 264 271 275 280 287 294 301 313 316 319 320 324 328 332 333 334 335 337 338 337 337 334 333 332 328 322 320 312 311 311 317 339 122 122 129 123 106 92 89 92 85 81
258 264 276 279 279 281 292 296 305 315 324 329 331 332 335 336 337 338 341 342 345 348 350 351 352 356 359 4 12 19 17 34 54 82 95 104 110 106 98 89 82 79 84 81
Height
5805 5808 5810 5813 5816 5819 5823 5826 5829 5830 5829 5831 5832 5832 5832 5832 5832 5831 5830 5830 5832 5833 5834 5834 5835 5836 5836 5836 5837 5836 5836 5837 5837 5837 5837 5837 5837 5837 5837 5836 5836 5836 5835 5835
5804 5806 5808 5811 5814 5816 5819 5823 5827 5828 5827 5829 5830 5829 5829 5828 5828 5829 5827 5827 5829 5831 5831 5831 5832 5832 5832 5832 5832 5831 5831 5831 5831 5831 5830 5830 5830 5830 5830 5829 5829 5829 5829 5829
5802 5806 5806 5809 5812 5814 5817 5821 5824 5825 5824 5826 5827 5827 5826 5825 5825 5825 5825 5825 5826 5827 5827 5828 5828 5828 5827 5827 5826 5826 5826 5826 5825 5825 5824 5824 5824 5824 5823 5823 5823 5823 5822 5822
5801 5804 5805 5807 5809 5812 5814 5817 5819 5822 5822 5823 5824 5824 5822 5820 5821 5821 5821 5822 5823 5823 5823 5823 5824 5823 5823 5822 5822 5821 5821 5820 5820 5819 5818 5818 5817 5817 5817 5816 5816 5816 5816 5815
5800 5802 5803 5805 5807 5810 5812 5814 5817 5818 5819 5820 5820 5819 5818 5815 5815 5816 5817 5818 5819 5820 5819 5819 5819 5819 5818 5818 5817 5816 5816 5815 5814 5813 5812 5811 5811 5810 5810 5809 5809 5809 5809 5809
5798 5800 5801 5803 5805 5808 5810 5812 5814 5815 5816 5816 5816 5815 5814 5811 5811 5811 5811 5814 5815 5816 5815 5815 5814 5814 5813 5813 5812 5811 5810 5809 5808 5807 5806 5805 5804 5804 5803 5802 5802 5802 5802 5802
5796 5798 5800 5801 5803 5806 5808 5811 5812 5812 5812 5812 5812 5812 5809 5806 5808 5809 5809 5809 5811 5811 5811 5810 5810 5809 5808 5808 5807 5806 5805 5803 5802 5801 5800 5799 5798 5797 5797 5796 5796 5796 5796 5795
5794 5797 5798 5799 5801 5804 5805 5808 5809 5809 5809 5808 5807 5807 5805 5801 5802 5804 5805 5806 5806 5806 5807 5806 5805 5804 5803 5802 5801 5800 5799 5797 5796 5795 5793 5792 5792 5791 5790 5790 5789 5789 5789 5789
5792 5794 5796 5797 5799 5802 5803 5805 5806 5806 5805 5804 5803 5803 5799 5797 5800 5801 5801 5802 5802 5802 5802 5801 5800 5799 5798 5797 5795 5794 5792 5791 5789 5788 5787 5786 5785 5785 5784 5783 5783 5782 5782 5782
5789 5792 5793 5795 5798 5800 5802 5802 5804 5804 5803 5801 5800 5797 5795 5794 5797 5799 5799 5798 5798 5798 5797 5796 5794 5793 5792 5791 5789 5788 5786 5785 5783 5782 5781 5780 5779 5778 5778 5777 5777 5776 5776 5775
5787 5789 5792 5793 5796 5797 5799 5801 5800 5801 5801 5800 5798 5797 5793 5793 5793 5794 5795 5795 5794 5793 5792 5790 5789 5788 5786 5785 5783 5781 5780 5778 5777 5776 5775 5774 5773 5772 5772 5771 5771 5770 5770 5769
5784 5786 5788 5791 5792 5794 5795 5797 5798 5799 5799 5798 5796 5796 5792 5790 5788 5790 5790 5790 5789 5787 5786 5785 5783 5782 5780 5778 5777 5775 5773 5772 5771 5770 5769 5768 5766 5766 5765 5765 5764 5764 5764 5763
5781 5784 5786 5788 5790 5791 5792 5794 5795 5795 5796 5795 5794 5794 5789 5787 5785 5784 5784 5784 5783 5782 5781 5779 5777 5776 5774 5772 5770 5768 5767 5765 5764 5763 5762 5762 5761 5760 5759 5759 5758 5758 5757 5757
5779 5780 5782 5784 5785 5785 5788 5790 5792 5792 5793 5792 5791 5788 5786 5784 5782 5780 5780 5779 5778 5776 5775 5773 5772 5769 5767 5765 5764 5762 5760 5759 5758 5757 5756 5755 5754 5754 5753 5753 5752 5752 5752 5752
5775 5777 5778 5780 5781 5783 5785 5787 5789 5789 5789 5788 5787 5785 5783 5781 5779 5777 5776 5773 5773 5771 5769 5767 5765 5763 5761 5759 5757 5755 5754 5752 5751 5750 5750 5749 5749 5748 5747 5747 5747 5746 5746 5746
5773 5774 5776 5778 5779 5781 5783 5784 5785 5785 5785 5785 5783 5782 5779 5776 5774 5773 5771 5768 5767 5765 5763 5761 5759 5757 5755 5753 5751 5749 5747 5746 5745 5744 5744 5743 5743 5742 5742 5741 5741 5741 5741 5741
5770 5772 5773 5775 5777 5779 5781 5781 5781 5781 5781 5781 5779 5779 5775 5772 5771 5768 5766 5764 5761 5759 5757 5755 5752 5750 5748 5746 5744 5743 5741 5740 5739 5739 5738 5738 5737 5737 5736 5736 5736 5736 5736 5736
5767 5769 5770 5772 5775 5776 5780 5778 5778 5778 5777 5776 5774 5773 5771 5768 5766 5763 5761 5758 5755 5753 5751 5748 5746 5744 5742 5740 5738 5737 5736 5735 5734 5733 5733 5733 5732 5732 5732 5732 5732 5732 5732 5732
5765 5767 5768 5770 5771 5773 5774 5774 5775 5775 5774 5772 5771 5769 5767 5764 5762 5759 5756 5753 5750 5747 5745 5743 5740 5738 5736 5735 5733 5732 5731 5730 5729 5729 5728 5728 5727 5727 5727 5727 5728 5728 5728 5728
5764 5765 5767 5768 5769 5769 5771 5771 5771 5772 5770 5769 5767 5765 5763 5760 5758 5755 5751 5748 5745 5742 5739 5737 5735 5733 5731 5730 5729 5727 5727 5726 5725 5725 5724 5724 5724 5724 5724 5724 5724 5724 5724 5725
5763 5764 5764 5765 5766 5766 5768 5768 5769 5770 5769 5766 5763 5761 5759 5756 5754 5750 5746 5743 5740 5738 5735 5733 5731 5729 5727 5726 5725 5724 5723 5722 5722 5722 5721 5721 5721 5721 5721 5721 5721 5722 5722 5722
5762 5763 5763 5764 5764 5767 5765 5765 5766 5766 5764 5762 5760 5758 5756 5753 5749 5746 5743 5739 5737 5734 5731 5729 5727 5726 5724 5723 5721 5720 5720 5719 5719 5719 5718 5719 5718 5718 5719 5719 5719 5720 5720 5720
5760 5761 5761 5763 5764 5763 5762 5763 5763 5762 5761 5759 5757 5755 5752 5749 5747 5743 5740 5737 5734 5731 5729 5726 5724 5723 5722 5720 5719 5718 5718 5717 5717 5717 5717 5717 5717 5717 5718 5718 5719 5719 5719 5720
5759 5759 5759 5760 5760 5761 5761 5761 5761 5759 5758 5756 5754 5752 5749 5747 5744 5741 5738 5735 5732 5729 5726 5724 5722 5721 5719 5718 5717 5716 5716 5716 5715 5716 5716 5716 5717 5717 5718 5718 5718 5719 5719 5720
5758 5758 5759 5759 5759 5759 5760 5759 5758 5757 5755 5754 5752 5750 5748 5745 5742 5739 5736 5733 5731 5728 5725 5723 5721 5720 5718 5717 5716 5716 5715 5715 5715 5716 5716 5716 5717 5717 5718 5719 5719 5719 5720 5720
5757 5758 5758 5759 5759 5759 5759 5758 5757 5756 5754 5752 5751 5749 5746 5744 5741 5738 5735 5732 5730 5727 5724 5722 5721 5719 5718 5717 5716 5716 5716 5716 5716 5717 5717 5718 5718 5719 5719 5720 5720 5720 5721 5721